When you browse on this site, cookies collect data to enhance your experience and personalize the content and advertising you see.
Visit our Privacy Policy to learn more. By continuing to use the site, you agree to this use of cookies and data.
  • In Portugal
  • List of Countries
  • For 7 days
  • Water Temperature
  • Weather Map
  • Weather Widgets
  • user-avatar
    Login

    Hourly Weather Kamienica

    Today, 24 January, Friday

    Time Temperature Precipitation Wind Pressure Humidity
    00:00 -1°C° 0 mm 1 mps 730 mmHg 76%
    01:00 -1°C° 0 mm 1 mps 730 mmHg 73%
    02:00 -1°C° 0 mm 1 mps 730 mmHg 72%
    03:00 -1°C° 0 mm 1 mps 729 mmHg 70%
    04:00 -3°C° 0 mm 2 mps 729 mmHg 69%
    05:00 -3°C° 0 mm 2 mps 729 mmHg 68%
    06:00 -3°C° 0 mm 2 mps 728 mmHg 67%
    07:00 -4°C° 0 mm 2 mps 728 mmHg 65%
    08:00 -2°C° 0 mm 2 mps 728 mmHg 63%
    09:00 -1°C° 0 mm 2 mps 728 mmHg 61%
    10:00 +2°C° 0 mm 1 mps 728 mmHg 59%
    11:00 +3°C° 0 mm 1 mps 728 mmHg 59%
    12:00 +4°C° 0 mm 1 mps 727 mmHg 59%
    13:00 +4°C° 0 mm 1 mps 727 mmHg 58%
    14:00 +3°C° 0 mm 1 mps 727 mmHg 63%
    15:00 +2°C° 0 mm 1 mps 726 mmHg 68%
    16:00 +1°C° 0 mm 1 mps 726 mmHg 72%
    17:00 0°C° 0 mm 1 mps 726 mmHg 73%
    18:00 -1°C° 0 mm 1 mps 726 mmHg 74%
    19:00 -1°C° 0 mm 1 mps 726 mmHg 75%
    20:00 -2°C° 0 mm 1 mps 726 mmHg 76%
    21:00 -2°C° 0 mm 1 mps 726 mmHg 76%
    22:00 -2°C° 0 mm 1 mps 726 mmHg 76%
    23:00 -2°C° 0 mm 1 mps 725 mmHg 76%

    Tomorrow, 25 January, Saturday

    Time Temperature Precipitation Wind Pressure Humidity
    00:00 -2°C° 0 mm 1 mps 725 mmHg 76%
    01:00 -2°C° 0 mm 1 mps 725 mmHg 76%
    02:00 -2°C° 0 mm 1 mps 725 mmHg 76%
    03:00 -2°C° 0 mm 1 mps 725 mmHg 76%
    04:00 -2°C° 0 mm 1 mps 724 mmHg 77%
    05:00 -2°C° 0 mm 1 mps 725 mmHg 76%
    06:00 -2°C° 0 mm 1 mps 725 mmHg 76%
    07:00 -2°C° 0 mm 1 mps 725 mmHg 75%
    08:00 -1°C° 0 mm 1 mps 725 mmHg 72%
    09:00 +1°C° 0 mm 1 mps 725 mmHg 68%
    10:00 +2°C° 0 mm 1 mps 726 mmHg 64%
    11:00 +3°C° 0 mm 1 mps 726 mmHg 63%
    12:00 +4°C° 0 mm 1 mps 725 mmHg 61%
    13:00 +5°C° 0 mm 1 mps 725 mmHg 60%
    14:00 +4°C° 0 mm 1 mps 725 mmHg 65%
    15:00 +3°C° 0 mm 1 mps 725 mmHg 71%
    16:00 +1°C° 0 mm 1 mps 725 mmHg 77%
    17:00 +1°C° 0 mm 1 mps 725 mmHg 78%
    18:00 0°C° 0 mm 1 mps 725 mmHg 80%
    19:00 0°C° 0 mm 1 mps 725 mmHg 81%
    20:00 0°C° 0 mm 1 mps 725 mmHg 81%
    21:00 0°C° 0 mm 1 mps 725 mmHg 81%
    22:00 -1°C° 0 mm 1 mps 725 mmHg 81%
    23:00 -1°C° 0 mm 1 mps 725 mmHg 80%

    Day after tomorrow, 26 January, Sunday

    Time Temperature Precipitation Wind Pressure Humidity
    00:00 -1°C° 0 mm 1 mps 725 mmHg 80%
    01:00 -1°C° 0 mm 1 mps 725 mmHg 79%
    02:00 -1°C° 0 mm 1 mps 725 mmHg 78%
    03:00 -1°C° 0 mm 1 mps 725 mmHg 78%
    04:00 -1°C° 0 mm 1 mps 725 mmHg 77%
    05:00 -1°C° 0 mm 1 mps 725 mmHg 77%
    06:00 -1°C° 0 mm 1 mps 725 mmHg 77%
    07:00 -1°C° 0 mm 1 mps 725 mmHg 76%
    08:00 0°C° 0 mm 1 mps 725 mmHg 74%
    09:00 +1°C° 0 mm 1 mps 725 mmHg 71%
    10:00 +2°C° 0 mm 1 mps 725 mmHg 68%
    11:00 +3°C° 0 mm 1 mps 725 mmHg 67%
    12:00 +4°C° 0 mm 1 mps 725 mmHg 67%
    13:00 +4°C° 0 mm 1 mps 725 mmHg 66%
    14:00 +3°C° 0 mm 1 mps 724 mmHg 70%
    15:00 +3°C° 0 mm 1 mps 724 mmHg 75%
    16:00 +2°C° 0 mm 1 mps 724 mmHg 79%
    17:00 +1°C° 0 mm 1 mps 724 mmHg 81%
    18:00 +1°C° 0 mm 1 mps 724 mmHg 82%
    19:00 +1°C° 0 mm 1 mps 724 mmHg 84%
    20:00 +1°C° 0 mm 1 mps 724 mmHg 84%
    21:00 +1°C° 0 mm 1 mps 723 mmHg 84%
    22:00 +1°C° 0 mm 1 mps 723 mmHg 85%
    23:00 +1°C° 0 mm 1 mps 723 mmHg 85%

    27 January, Monday

    Time Temperature Precipitation Wind Pressure Humidity
    00:00 +1°C° 0 mm 1 mps 723 mmHg 86%
    01:00 +1°C° 0 mm 1 mps 723 mmHg 86%
    02:00 +1°C° 0 mm 1 mps 723 mmHg 86%
    03:00 +1°C° 0 mm 1 mps 722 mmHg 87%
    04:00 +1°C° 0 mm 1 mps 722 mmHg 87%
    05:00 +1°C° 0 mm 1 mps 722 mmHg 87%
    06:00 +2°C° 0 mm 1 mps 722 mmHg 87%
    07:00 +2°C° 0 mm 1 mps 722 mmHg 87%
    08:00 +2°C° 0 mm 1 mps 722 mmHg 84%
    09:00 +3°C° 0 mm 1 mps 722 mmHg 82%
    10:00 +4°C° 0 mm 1 mps 722 mmHg 80%
    11:00 +5°C° 0 mm 1 mps 722 mmHg 78%
    12:00 +5°C° 0 mm 1 mps 722 mmHg 76%
    13:00 +5°C° 0 mm 0 mps 722 mmHg 74%
    14:00 +5°C° 0 mm 1 mps 721 mmHg 79%
    15:00 +4°C° 0 mm 1 mps 721 mmHg 84%
    16:00 +3°C° 0 mm 1 mps 721 mmHg 88%
    17:00 +2°C° 0 mm 1 mps 721 mmHg 88%
    18:00 +2°C° 0 mm 1 mps 721 mmHg 88%
    19:00 +1°C° 0 mm 1 mps 721 mmHg 89%
    20:00 +1°C° 0 mm 1 mps 721 mmHg 88%
    21:00 +1°C° 0 mm 1 mps 720 mmHg 88%
    22:00 -1°C° 0 mm 2 mps 720 mmHg 87%
    23:00 -1°C° 0 mm 2 mps 720 mmHg 87%

    28 January, Tuesday

    Time Temperature Precipitation Wind Pressure Humidity
    00:00 -1°C° 0 mm 2 mps 719 mmHg 87%
    01:00 -1°C° 0 mm 2 mps 719 mmHg 86%
    02:00 -1°C° 0 mm 2 mps 718 mmHg 87%
    03:00 -1°C° 0 mm 2 mps 718 mmHg 87%
    04:00 -1°C° 0 mm 2 mps 718 mmHg 88%
    05:00 -1°C° 0 mm 2 mps 717 mmHg 88%
    06:00 -1°C° 0 mm 3 mps 716 mmHg 88%
    07:00 -1°C° 0 mm 3 mps 716 mmHg 89%
    08:00 0°C° 0 mm 3 mps 715 mmHg 86%
    09:00 0°C° 0 mm 4 mps 715 mmHg 83%
    10:00 0°C° 0 mm 4 mps 714 mmHg 81%
    11:00 +1°C° 0 mm 4 mps 714 mmHg 80%
    12:00 +3°C° 0 mm 4 mps 713 mmHg 79%
    13:00 +3°C° 0 mm 3 mps 712 mmHg 78%
    14:00 +3°C° 0.1 mm 3 mps 712 mmHg 82%
    15:00 +2°C° 0.1 mm 3 mps 712 mmHg 86%
    16:00 +2°C° 0.1 mm 3 mps 712 mmHg 90%
    17:00 +1°C° 0.1 mm 3 mps 712 mmHg 90%
    18:00 +2°C° 0.1 mm 2 mps 712 mmHg 90%
    19:00 +2°C° 0.1 mm 2 mps 712 mmHg 90%
    20:00 +2°C° 0 mm 2 mps 712 mmHg 89%
    21:00 +2°C° 0 mm 2 mps 712 mmHg 88%
    22:00 +2°C° 0 mm 2 mps 712 mmHg 87%
    23:00 +1°C° 0 mm 3 mps 713 mmHg 85%

    29 January, Wednesday

    Time Temperature Precipitation Wind Pressure Humidity
    00:00 +1°C° 0 mm 3 mps 713 mmHg 82%
    01:00 0°C° 0 mm 4 mps 713 mmHg 80%
    02:00 0°C° 0 mm 4 mps 713 mmHg 80%
    03:00 -1°C° 0 mm 4 mps 713 mmHg 80%
    04:00 -1°C° 0 mm 4 mps 714 mmHg 80%
    05:00 -2°C° 0 mm 4 mps 714 mmHg 80%
    06:00 -1°C° 0 mm 3 mps 714 mmHg 80%
    07:00 -2°C° 0 mm 2 mps 714 mmHg 80%
    08:00 -1°C° 0 mm 3 mps 713 mmHg 74%
    09:00 +1°C° 0 mm 3 mps 713 mmHg 69%
    10:00 +1°C° 0 mm 4 mps 713 mmHg 63%
    11:00 +1°C° 0 mm 5 mps 713 mmHg 65%
    12:00 +2°C° 0 mm 5 mps 712 mmHg 66%
    13:00 +3°C° 0 mm 6 mps 712 mmHg 68%
    14:00 +2°C° 0.3 mm 6 mps 712 mmHg 72%
    15:00 +1°C° 0.3 mm 5 mps 712 mmHg 76%
    16:00 0°C° 0.3 mm 5 mps 713 mmHg 80%
    17:00 -1°C° 0.1 mm 4 mps 713 mmHg 79%
    18:00 -1°C° 0.1 mm 4 mps 714 mmHg 78%
    19:00 -2°C° 0.1 mm 4 mps 714 mmHg 77%
    20:00 -2°C° 0 mm 4 mps 714 mmHg 79%
    21:00 -2°C° 0 mm 3 mps 714 mmHg 80%
    22:00 -2°C° 0 mm 3 mps 715 mmHg 82%
    23:00 -2°C° 0 mm 3 mps 715 mmHg 81%
    Show more